Kalispell, MT

5:05 PM MDT on March 27, 2017 (GMT -0600)
Glacier Park International

Weather History for KGPI - September, 2013

Change the Weather History Date:

Monday, September 23, 2013

  Actual Average Record
Temperature  
Mean Temperature 52 °F 51 °F  
Max Temperature 60 °F 67 °F 87 °F (2011)
Min Temperature 43 °F 36 °F 13 °F (1926)
Degree Days  
Heating Degree Days 13 14  
Month to date heating degree days 105 222  
Since 1 July heating degree days 146 392  
Cooling Degree Days 0 0  
Month to date cooling degree days 29 1  
Year to date cooling degree days 264 144  
Growing Degree Days 2 (Base 50)    
Moisture  
Dew Point 41 °F    
Average Humidity 66    
Maximum Humidity 80    
Minimum Humidity 51    
Precipitation  
Precipitation 0.06 in 0.05 in 1.21 in (1930)
Month to date precipitation 2.06 1.11  
Year to date precipitation 12.68 12.72  
Snow  
Snow 0.00 in - - ()
Month to date snowfall 0.0  
Year to date snowfall 10.1  
Since 1 July snowfall 0.0  
Snow Depth 0.00 in    
Sea Level Pressure  
Sea Level Pressure 29.86 in    
Wind  
Wind Speed 10 mph (SSW)    
Max Wind Speed 24 mph    
Max Gust Speed 30 mph    
Visibility 10 miles    
Events Rain    
T = Trace of Precipitation, MM = Missing Value Source: NWS Daily Summary

Daily Weather History Graph

Daily Weather History Graph

Search for Another Location

Airport or City:

Trip Planner

Search our weather history database for the weather conditions in past years. The results will help you decide how hot, cold, wet, or windy it might be!

Date:

Astronomy

Sep. 23, 2013 Rise Set
Actual Time 7:25 AM MDT 7:32 PM MDT
Civil Twilight 6:54 AM MDT 8:03 PM MDT
Nautical Twilight 6:17 AM MDT 8:39 PM MDT
Astronomical Twilight 5:39 AM MDT 9:17 PM MDT
Moon 9:44 PM MDT (9/23) 12:10 PM MDT (9/23)
Length of Visible Light 13h 08m
Length of Day
12h 06m
Waning Gibbous, 81% of the Moon is Illuminated
Sep 23
Waning Gibbous
Sep 26
Last Quarter
Oct 4
New
Oct 11
First Quarter
Oct 18
Full

Hourly Weather History & Observations

Time (MDT) Temp. Windchill Dew Point Humidity Pressure Visibility Wind Dir Wind Speed Gust Speed Precip Events Conditions
12:55 AM 52.0 °F - 41.0 °F 66% 29.68 in 10.0 mi SSE 8.1 mph - N/A   Overcast
1:55 AM 52.0 °F - 42.1 °F 69% 29.70 in 10.0 mi South 10.4 mph - N/A   Overcast
2:55 AM 52.0 °F - 41.0 °F 66% 29.70 in 10.0 mi SSW 12.7 mph - N/A   Overcast
3:55 AM 50.0 °F - 42.1 °F 74% 29.72 in 10.0 mi SSW 9.2 mph - 0.00 in   Overcast
4:55 AM 48.9 °F - 45.0 °F 86% 29.74 in 9.0 mi SSW 11.5 mph - 0.02 in Rain Light Rain
5:55 AM 46.0 °F 42.5 °F 42.1 °F 86% 29.77 in 10.0 mi SSE 6.9 mph - 0.01 in   Partly Cloudy
6:55 AM 48.9 °F - 42.1 °F 77% 29.79 in 10.0 mi SSW 10.4 mph - N/A   Overcast
7:55 AM 48.0 °F - 39.9 °F 74% 29.82 in 10.0 mi South 6.9 mph - N/A   Overcast
8:55 AM 50.0 °F - 39.9 °F 68% 29.84 in 10.0 mi South 5.8 mph - N/A   Mostly Cloudy
9:55 AM 54.0 °F - 41.0 °F 62% 29.86 in 10.0 mi South 9.2 mph - N/A   Mostly Cloudy
10:55 AM 54.0 °F - 39.0 °F 57% 29.88 in 10.0 mi South 5.8 mph - N/A   Overcast
11:55 AM 54.0 °F - 39.0 °F 57% 29.89 in 10.0 mi SW 16.1 mph 20.7 mph N/A   Mostly Cloudy
12:55 PM 55.0 °F - 41.0 °F 59% 29.89 in 10.0 mi SSW 18.4 mph 23.0 mph 0.00 in   Mostly Cloudy
1:55 PM 59.0 °F - 41.0 °F 51% 29.88 in 10.0 mi SW 17.3 mph 24.2 mph 0.00 in   Overcast
2:55 PM 59.0 °F - 39.0 °F 48% 29.87 in 10.0 mi SW 15.0 mph 24.2 mph 0.00 in Rain Light Rain
3:55 PM 57.0 °F - 37.9 °F 49% 29.89 in 10.0 mi SW 13.8 mph - 0.00 in   Mostly Cloudy
4:55 PM 57.0 °F - 39.9 °F 53% 29.92 in 10.0 mi SSW 16.1 mph 25.3 mph N/A   Partly Cloudy
5:55 PM 55.9 °F - 37.9 °F 51% 29.94 in 10.0 mi SW 15.0 mph - N/A   Mostly Cloudy
6:55 PM 54.0 °F - 41.0 °F 62% 29.94 in 10.0 mi SSW 6.9 mph - 0.00 in   Mostly Cloudy
7:55 PM 53.1 °F - 39.9 °F 61% 29.96 in 10.0 mi South 5.8 mph - N/A   Overcast
8:55 PM 51.1 °F - 39.9 °F 66% 29.96 in 10.0 mi SSE 8.1 mph - N/A   Overcast
9:55 PM 48.9 °F - 42.1 °F 77% 29.95 in 10.0 mi SSE 8.1 mph - N/A   Overcast
10:55 PM 48.9 °F - 43.0 °F 80% 29.98 in 8.0 mi West 9.2 mph - 0.00 in Rain Rain
11:55 PM 45.0 °F - 42.1 °F 90% 29.96 in 10.0 mi Calm Calm - 0.03 in   Scattered Clouds